Theta_e
324 326 326 326 325 325 325 324 324 325 326 326 324 323 324 327 322 319 328 334 328 326 333 339 343 347 348 350 350 349 350 352 353 355 355 355 355 355 354 353 353 353 352 352 351 347 346 346 346 345 344 343 342 341 340 341 342 342 342 343 343 343 343 344 344 344 344 345 346 346 347 348 350 351 352 352 353 353 353 352 353 353 353 352 352 352 352
324 325 325 326 325 323 324 325 325 326 326 326 326 325 326 327 325 325 332 334 329 328 332 334 339 345 347 349 350 350 351 353 355 357 356 355 354 353 353 353 353 353 352 352 350 346 346 346 346 346 345 343 342 341 340 340 341 342 341 343 343 343 343 343 343 342 341 341 343 344 346 347 348 349 350 351 352 352 351 351 351 351 351 351 352 352 352
322 324 325 325 325 324 322 323 325 325 325 326 326 325 325 327 326 329 333 331 329 335 340 341 345 348 350 351 351 350 352 354 356 356 355 355 354 353 352 353 353 353 353 352 349 346 346 346 346 345 345 343 341 340 340 339 341 341 341 341 342 342 342 342 342 342 341 340 340 341 342 344 345 346 348 349 350 350 351 351 351 350 350 350 350 351 352
319 323 324 324 324 324 321 321 323 325 324 324 325 325 328 327 327 330 332 327 327 337 346 348 353 354 353 353 353 353 354 355 356 354 354 356 355 353 353 355 354 353 353 352 349 346 345 346 347 345 345 344 341 340 340 340 340 341 340 341 341 340 341 341 340 341 341 340 339 339 339 341 342 343 343 345 347 349 351 352 352 352 352 351 351 351 352
319 323 325 323 322 320 318 321 324 325 325 326 326 327 328 330 328 329 328 327 333 345 344 344 349 351 349 349 351 353 355 356 355 354 354 356 355 354 355 353 352 351 352 351 349 345 344 345 347 346 345 343 341 340 340 339 339 340 340 340 339 339 340 339 339 341 340 339 338 338 338 338 339 340 340 341 344 346 349 350 351 353 352 351 352 353 354
319 322 324 323 320 316 318 326 328 327 326 326 325 327 328 330 330 328 330 334 343 347 341 339 346 346 344 347 349 352 356 356 355 354 354 356 355 355 354 352 349 349 351 351 348 346 344 345 347 346 343 340 339 340 339 339 339 339 339 338 338 338 338 338 338 339 338 338 337 338 338 338 338 338 339 340 341 342 345 346 348 350 350 351 353 353 352
320 323 324 319 317 319 324 330 331 330 328 327 327 328 328 329 329 330 333 336 341 343 340 342 346 347 347 349 351 354 355 354 354 354 354 355 355 355 355 352 350 349 348 348 347 346 345 346 347 345 340 338 339 340 339 339 339 339 338 337 337 337 337 337 337 336 336 336 337 338 338 338 339 339 339 340 340 341 342 343 344 347 348 350 353 352 351
323 323 321 318 319 324 327 330 329 330 329 328 327 327 328 329 330 331 333 333 338 345 345 346 351 352 353 352 353 355 353 352 353 353 353 355 355 354 352 348 346 345 344 345 345 343 344 346 346 343 339 338 339 339 339 338 339 338 337 337 336 336 336 336 335 336 336 336 337 337 337 337 338 340 339 339 339 340 341 342 342 344 345 347 349 350 351
324 321 319 321 323 324 327 330 331 331 330 330 328 327 328 329 330 331 333 334 341 347 345 346 350 351 350 351 353 355 355 353 352 350 351 352 351 350 346 343 342 342 343 344 343 340 343 346 344 339 338 339 339 339 339 338 338 338 337 337 336 336 336 335 335 336 335 335 336 336 336 336 337 338 338 338 338 338 339 341 342 343 344 345 345 347 349
325 322 320 322 321 320 325 330 330 332 332 331 331 329 329 332 334 334 333 336 343 346 346 347 348 347 345 343 347 353 352 351 350 352 352 348 347 348 347 345 344 343 343 344 342 341 344 345 340 336 338 340 339 338 339 338 338 337 337 337 336 335 335 335 334 335 334 334 336 335 335 335 335 336 337 337 337 338 338 339 340 342 344 344 345 345 346
325 323 320 321 320 322 330 332 330 331 330 330 331 325 325 334 341 338 336 341 345 345 345 347 346 344 338 336 342 348 346 343 347 352 352 350 351 350 347 344 342 342 343 343 342 343 344 340 334 333 337 340 338 337 338 337 337 337 337 336 336 335 335 334 334 333 333 334 335 335 335 334 334 334 335 336 336 336 336 337 339 340 341 342 344 345 345
324 323 321 322 322 327 333 332 330 330 329 331 329 321 323 337 343 338 337 341 344 344 347 347 345 341 335 334 340 343 339 338 344 346 346 347 350 349 345 343 342 342 342 341 342 344 342 335 330 331 335 337 337 337 337 337 337 337 337 336 336 335 334 333 333 333 333 332 334 334 334 334 333 334 335 335 335 335 336 336 337 338 339 341 343 343 343
324 324 323 323 324 329 334 332 330 331 330 327 324 323 331 341 342 339 339 340 340 345 347 344 343 345 344 346 346 342 337 340 345 345 343 343 345 346 347 346 343 342 343 343 344 344 339 332 333 336 336 336 337 337 336 337 338 337 337 336 335 334 333 333 332 333 332 332 334 334 334 334 334 334 334 335 336 337 338 337 338 338 339 340 342 344 344
325 325 324 323 326 331 334 331 331 330 326 325 327 333 340 342 341 340 341 339 340 345 346 343 345 349 350 350 348 342 338 341 344 345 344 344 345 347 346 344 342 343 345 345 344 342 336 331 335 338 336 335 336 337 337 338 338 337 337 336 333 333 333 332 332 331 331 332 333 333 333 333 334 334 334 335 336 337 338 339 339 340 340 340 341 343 343
327 327 326 325 328 332 333 332 332 331 330 331 336 339 340 341 342 341 341 340 341 343 343 344 346 349 349 348 347 344 343 344 343 343 344 345 346 346 343 342 343 344 345 345 343 340 337 334 336 336 334 334 336 338 337 338 338 337 337 335 333 333 333 332 331 330 330 332 333 333 334 334 333 334 334 334 335 336 338 339 340 341 342 342 342 342 342
328 327 327 328 331 334 333 332 333 334 334 336 339 339 339 341 341 341 341 341 341 341 342 344 346 348 348 350 350 349 348 347 344 345 345 345 345 344 343 344 344 344 344 343 341 340 337 334 333 333 332 333 336 338 338 337 338 337 336 334 333 333 332 331 331 331 331 333 334 334 335 334 334 334 333 333 333 335 337 339 339 340 341 341 341 342 342
330 329 330 331 333 334 333 332 332 334 335 336 337 338 339 340 339 340 341 341 340 340 341 344 347 347 347 350 352 351 350 348 346 345 344 344 342 344 345 345 344 344 343 341 340 339 336 332 330 328 330 334 337 337 337 337 337 336 335 334 333 333 331 331 331 332 332 333 334 334 334 334 334 334 334 333 332 333 335 337 337 338 339 339 339 340 341
332 332 331 331 331 332 332 331 332 334 336 337 338 337 338 338 338 340 341 341 340 341 340 343 346 347 346 350 352 353 352 350 347 345 344 343 343 345 347 345 343 343 343 340 339 338 336 333 331 327 329 335 338 337 336 337 336 334 334 333 332 332 332 332 331 331 332 332 332 334 333 333 333 332 333 333 332 332 334 335 335 336 336 336 337 338 338
332 331 331 331 330 331 332 331 333 336 337 338 338 338 339 340 340 341 341 339 337 339 340 342 345 345 346 350 352 353 352 349 346 344 343 344 346 347 346 343 342 342 341 339 338 338 336 335 333 329 330 334 337 336 336 335 334 333 333 332 331 332 332 332 330 331 332 332 332 332 332 332 332 331 330 330 330 331 332 332 332 333 333 334 335 335 335
331 331 332 332 330 331 332 332 333 336 338 337 336 337 339 341 340 340 339 336 335 338 340 342 343 345 346 348 351 353 353 348 344 342 342 344 346 345 342 340 341 341 339 339 338 336 334 333 332 330 331 334 336 335 334 333 333 333 333 332 332 333 332 331 330 331 332 332 331 331 331 332 331 330 330 329 329 329 330 330 330 331 332 332 331 331 331
333 333 332 332 331 331 333 333 334 336 337 336 335 337 339 340 340 338 336 334 333 336 340 341 343 343 345 347 350 352 351 347 341 341 342 342 341 340 339 339 338 337 338 339 337 333 331 329 327 328 332 335 335 333 332 333 334 333 332 332 333 332 331 331 331 330 330 330 329 329 330 330 331 331 330 329 328 329 329 329 329 329 330 330 328 328 328
334 334 332 331 332 332 333 333 334 335 337 336 336 337 338 339 338 336 335 335 333 333 338 342 342 344 345 347 348 350 350 347 341 339 341 339 338 338 339 337 334 332 335 336 333 329 329 326 324 328 334 335 334 333 333 333 334 333 332 332 332 332 332 331 331 331 330 329 329 328 328 328 329 330 329 329 328 328 328 328 328 328 327 326 326 327 328
333 332 330 330 332 332 333 334 334 335 337 336 336 337 339 340 338 335 335 338 337 335 337 340 342 344 346 346 347 349 349 346 342 339 338 337 337 339 338 335 333 331 332 332 329 327 327 324 324 330 335 335 333 333 333 333 334 333 332 332 332 332 331 330 330 330 330 329 329 328 327 327 328 329 329 329 328 328 328 327 327 325 323 323 323 325 327
331 330 328 328 330 330 332 333 333 335 337 336 335 337 338 339 339 337 337 339 339 339 341 342 343 346 348 347 348 349 347 344 342 340 337 337 338 339 337 333 332 331 331 329 327 327 325 322 324 332 335 334 333 333 333 333 334 333 332 333 332 332 331 329 329 330 330 329 328 328 327 327 327 327 328 328 327 327 326 325 324 322 320 320 321 322 323
330 328 325 326 328 330 331 332 332 334 336 335 336 338 337 336 337 339 338 337 337 338 340 341 341 343 345 346 348 349 347 343 341 339 338 338 339 338 335 332 331 331 329 327 327 326 323 321 326 333 334 333 333 333 333 333 334 333 333 333 332 332 330 329 329 329 330 329 328 327 327 327 326 326 326 325 324 322 320 319 318 318 318 318 318 319 320
327 326 324 325 327 329 331 333 333 335 337 335 337 340 339 335 334 338 338 336 336 337 339 339 338 339 341 343 346 346 345 343 341 339 339 339 338 335 333 332 332 330 328 326 326 324 321 322 328 333 334 332 332 333 333 332 333 333 333 332 333 332 331 330 330 330 329 329 328 327 327 326 326 326 325 323 322 320 319 317 316 314 315 315 315 315 316
324 324 324 325 327 329 332 334 335 336 337 336 336 339 340 338 337 338 337 336 336 337 337 337 336 337 338 340 340 341 343 342 341 340 340 339 337 333 332 332 332 329 326 326 324 321 320 324 330 333 333 333 332 332 333 332 332 334 333 332 332 331 329 329 330 330 329 329 328 327 327 326 326 326 325 324 323 322 321 319 316 314 313 312 313 313 314
322 322 324 326 327 329 332 335 336 337 337 335 335 336 337 337 338 339 338 336 335 336 336 336 336 336 337 337 335 336 340 341 340 341 340 337 334 332 331 330 329 327 325 324 322 319 320 326 331 332 331 331 331 332 333 332 332 333 333 332 331 330 329 329 329 329 329 328 326 323 324 325 325 324 323 323 322 321 321 319 316 313 311 311 310 311 312
323 323 325 327 328 330 333 336 337 337 337 336 334 334 334 334 335 336 337 336 335 335 334 335 335 335 336 337 337 335 338 341 341 340 337 334 332 333 331 328 327 325 323 321 320 319 321 326 331 332 331 329 329 331 332 332 331 333 333 331 330 330 330 329 329 329 329 327 324 320 319 321 322 322 322 322 322 323 323 321 318 316 314 314 314 312 311
324 325 326 327 328 331 334 336 336 337 337 337 336 335 335 334 332 332 334 337 336 335 333 333 334 335 334 336 339 339 338 340 340 336 333 333 333 331 330 327 325 324 322 319 318 319 320 324 329 332 331 328 329 330 331 331 331 332 332 331 330 330 329 328 329 329 327 325 322 320 319 320 322 323 322 323 323 323 322 322 321 320 320 320 319 316 312
325 325 326 327 329 331 333 335 337 337 337 336 336 336 335 334 331 328 331 335 336 334 332 332 333 334 334 336 339 340 339 338 336 332 332 333 331 329 327 326 324 324 321 318 319 319 317 320 327 331 330 329 329 330 331 330 331 332 332 331 330 329 327 325 326 327 325 323 322 323 323 324 324 324 324 324 324 323 322 323 323 323 322 322 322 320 317
326 325 325 326 329 331 333 335 337 337 336 336 336 336 335 334 332 328 328 332 334 333 333 332 332 333 334 335 337 339 338 335 333 331 333 332 330 328 327 325 324 324 320 318 319 317 313 317 326 330 328 327 329 330 330 331 332 332 332 330 328 325 323 322 323 324 324 324 325 325 326 325 325 324 324 324 324 324 323 323 323 323 323 322 321 320 319
330 328 326 326 329 332 334 335 334 334 335 335 335 336 335 333 330 327 326 330 332 333 333 333 332 333 334 335 335 336 335 333 332 332 333 331 329 328 327 325 323 322 319 318 319 315 312 317 325 326 325 326 329 330 331 332 332 331 331 330 327 324 323 322 322 323 324 324 325 326 326 325 325 325 324 324 324 323 323 323 323 323 322 321 318 315 315
331 330 327 327 330 332 333 333 333 333 332 333 335 336 334 332 329 326 326 329 331 332 333 332 331 331 333 333 334 334 333 332 333 333 332 330 329 328 328 326 324 321 319 318 317 315 314 317 320 322 323 326 329 330 331 332 332 331 331 329 327 325 324 323 323 324 326 326 325 325 325 325 325 324 323 324 324 323 323 323 322 322 322 320 317 314 314
332 332 330 330 331 331 331 331 332 333 333 334 335 335 333 331 329 328 328 328 330 332 333 332 331 331 332 332 333 333 333 332 333 333 331 330 329 329 328 328 326 321 319 318 317 316 316 315 314 317 322 326 327 329 330 331 332 331 329 328 327 326 325 325 325 325 326 326 325 325 325 325 324 324 323 323 323 323 322 322 322 322 322 321 318 315 314
333 333 332 332 331 330 331 331 331 331 332 332 332 332 332 331 331 330 329 327 327 330 334 334 332 331 332 332 333 333 333 332 333 333 331 329 329 328 328 328 327 324 320 317 316 317 317 314 313 316 321 323 324 326 327 329 331 331 328 327 327 327 326 326 326 326 326 326 325 325 325 325 324 323 323 323 323 322 322 323 322 322 321 321 318 316 314
330 329 330 331 330 331 331 330 329 331 332 331 328 329 331 331 331 331 330 328 326 328 332 334 333 332 332 331 332 332 332 331 331 332 331 330 329 328 328 328 328 326 322 319 318 318 317 315 313 316 320 321 323 324 323 325 329 330 328 327 328 328 327 327 327 327 326 326 326 325 324 323 323 323 323 323 323 323 323 323 323 322 322 321 319 318 317
327 325 327 330 331 332 331 329 330 333 334 332 328 328 330 330 331 333 333 333 332 332 333 333 334 334 333 331 331 331 331 330 330 330 330 329 329 329 329 329 329 328 325 323 321 319 318 316 315 317 320 322 324 325 324 322 325 329 329 328 329 329 328 327 327 327 327 326 326 325 324 323 322 323 323 323 323 323 322 322 322 322 322 321 320 320 320
325 324 325 329 332 333 332 331 331 334 335 333 330 328 328 328 328 331 334 334 334 334 335 334 334 334 334 332 331 331 331 331 331 330 329 329 329 330 330 330 329 329 327 326 323 320 318 317 316 317 319 322 324 327 327 323 323 327 329 328 328 328 328 327 327 327 327 327 326 326 325 324 323 323 322 323 323 322 322 322 322 322 322 322 322 322 321
323 324 326 329 332 334 334 334 333 333 332 332 332 331 330 331 331 334 335 335 333 333 334 334 334 333 333 333 333 332 333 332 332 331 330 329 329 330 331 330 330 330 329 327 324 321 319 318 317 317 318 321 325 328 328 325 324 326 328 328 328 327 327 327 327 327 327 326 325 325 325 326 325 324 323 323 323 322 322 323 323 323 322 322 322 322 322
326 329 330 328 329 332 335 335 334 332 330 330 331 331 331 332 334 335 335 333 332 332 333 333 333 334 333 334 335 335 334 334 334 334 332 331 330 330 331 331 331 331 331 330 327 323 320 319 318 317 318 321 324 327 328 327 326 327 328 329 328 327 327 327 328 327 327 326 324 324 326 326 326 326 325 324 323 323 323 323 323 323 323 323 322 322 323
329 330 329 325 325 331 334 334 333 333 332 329 327 327 328 328 329 330 328 328 328 329 330 331 332 333 334 335 335 335 334 334 334 335 334 333 332 331 331 331 331 331 332 331 329 326 322 319 318 318 319 321 323 325 327 327 326 327 328 329 328 327 326 327 328 328 328 327 327 326 327 327 326 326 326 325 324 324 324 323 323 323 323 323 323 323 323
328 328 327 324 325 330 334 333 332 333 333 329 326 326 326 326 326 327 327 326 326 326 327 327 328 329 331 334 335 335 334 334 334 334 334 334 334 333 333 332 332 332 331 331 331 330 326 321 319 318 318 319 321 323 325 325 325 326 328 329 329 328 327 327 328 328 328 328 328 327 328 327 327 326 326 326 325 325 324 324 324 323 323 323 323 323 323
327 328 328 326 326 330 334 335 334 333 332 328 325 325 325 325 325 326 326 327 327 326 326 326 326 326 328 333 335 335 335 335 334 334 334 334 334 334 334 333 333 332 332 331 331 331 330 326 322 319 318 318 319 322 324 325 325 326 328 328 328 328 328 327 327 327 327 327 328 328 328 328 328 328 327 327 327 326 326 325 325 324 324 324 324 323 324
326 326 326 325 327 330 332 333 332 331 330 329 328 328 326 325 324 324 324 324 326 326 325 326 328 329 331 333 335 335 335 335 335 335 335 335 335 334 334 334 333 333 332 331 331 331 331 330 327 324 321 319 318 320 323 325 326 327 328 328 328 328 328 327 327 327 326 327 327 326 327 328 328 328 328 328 327 327 327 327 326 325 326 325 325 324 324
324 325 325 326 328 330 330 329 330 330 329 331 333 332 330 328 328 327 325 324 325 327 328 329 331 332 333 334 334 334 334 334 334 335 335 335 335 334 333 334 334 334 333 332 331 331 331 331 330 329 326 323 320 319 322 325 327 327 327 328 328 328 328 328 327 327 326 326 326 326 326 327 327 327 327 327 328 328 328 327 326 326 327 327 326 326 325
326 326 327 329 330 329 328 328 329 330 331 332 334 334 331 329 330 331 329 327 326 328 330 332 333 333 332 332 333 333 333 334 334 334 334 333 333 333 333 333 334 335 334 333 332 332 332 331 331 330 330 328 325 322 322 325 327 328 327 327 328 328 327 327 327 326 326 326 326 325 325 325 325 325 326 327 328 329 328 327 326 326 327 327 326 326 326
328 328 329 330 330 329 328 328 330 331 332 331 332 332 331 329 329 330 331 329 328 328 328 329 331 331 330 330 331 333 333 333 334 335 333 331 331 332 334 333 333 334 334 334 333 333 333 332 332 331 330 331 329 326 324 325 327 327 327 327 327 327 327 327 327 326 326 326 326 325 326 325 325 324 325 326 327 327 327 326 325 325 325 325 325 325 325
329 329 330 330 330 330 330 330 331 331 330 329 329 329 329 328 329 331 331 330 330 331 330 330 329 328 328 328 330 331 331 331 332 334 334 331 331 332 333 334 332 332 333 334 334 333 333 333 333 332 331 330 330 328 326 326 327 327 326 326 326 327 327 327 327 326 326 326 325 325 325 325 324 324 324 324 325 324 324 323 323 323 323 323 324 324 324
328 328 329 330 330 329 329 329 329 329 329 329 329 328 326 327 331 332 331 330 330 331 332 331 331 329 328 328 329 329 329 328 329 330 332 332 332 332 333 333 333 331 331 332 333 333 332 333 333 333 331 330 330 330 328 327 328 327 326 325 325 325 325 326 326 326 325 324 324 324 323 323 323 323 323 323 323 323 322 322 323 322 320 321 322 323 323
328 328 328 330 330 329 328 327 327 326 327 328 328 327 327 328 330 331 330 329 330 331 332 332 332 331 329 328 328 329 329 328 328 328 328 330 331 332 333 333 332 331 331 332 333 333 333 332 333 332 332 331 331 330 330 330 329 328 326 324 324 324 324 324 324 324 324 322 322 323 323 322 322 324 324 323 322 322 322 322 322 321 320 320 321 322 322
327 327 327 328 330 330 330 328 327 327 328 328 328 328 327 328 330 331 331 329 329 330 331 332 332 332 331 330 329 330 331 331 331 330 329 329 330 331 332 332 332 332 332 332 334 334 334 333 333 332 332 332 332 331 330 331 331 330 328 325 323 323 324 324 324 323 322 321 321 323 323 323 323 324 324 323 322 321 321 321 321 321 321 320 320 320 321
Wind_Speed
14 15 13 8 7 9 10 11 11 11 13 13 13 13 11 8 8 7 2 5 10 7 6 10 12 13 14 16 18 19 18 18 18 18 18 18 17 17 17 16 16 15 14 13 12 11 11 10 9 7 5 4 3 2 3 3 3 4 4 4 5 6 6 7 8 9 11 10 9 8 8 8 8 9 10 12 12 13 15 15 15 15 15 15 15 16 16
12 14 13 10 9 10 10 12 13 11 13 14 13 14 14 12 12 9 3 6 10 7 4 8 12 15 16 17 19 19 19 20 19 19 20 19 18 18 18 17 17 16 15 14 13 12 11 10 9 7 5 3 3 2 3 3 4 4 4 4 4 5 6 7 8 8 11 12 12 11 10 9 10 10 10 11 12 14 15 16 17 17 18 17 16 16 16
11 13 13 10 10 12 12 13 14 13 14 14 14 14 12 11 12 10 7 9 8 3 2 5 12 15 15 16 19 20 20 21 21 21 20 20 19 19 18 18 18 17 16 15 13 12 12 10 8 7 5 3 3 3 3 3 3 4 4 4 5 5 6 7 6 6 7 9 10 11 11 11 11 11 11 11 11 13 14 15 17 17 18 19 19 17 17
10 10 11 11 11 11 13 14 15 14 14 13 13 12 10 10 12 10 9 9 7 4 5 7 11 14 15 17 20 20 20 21 23 22 21 21 20 19 18 18 18 17 17 16 14 13 12 11 8 6 4 3 2 2 3 3 4 4 4 5 6 6 7 7 6 5 5 5 8 9 10 11 11 11 13 13 13 13 13 14 15 16 17 18 18 18 17
9 7 8 9 9 10 11 12 13 15 14 13 13 12 11 13 13 10 9 8 4 5 9 9 10 12 15 18 20 21 21 22 23 23 22 21 20 20 19 19 19 18 17 16 15 14 12 10 8 6 4 3 3 3 3 4 4 4 5 6 6 7 7 7 6 5 5 5 7 8 9 10 11 12 13 13 13 13 13 14 15 15 16 17 17 17 17
8 6 4 6 10 10 7 3 6 12 15 16 16 14 14 14 12 10 8 4 3 6 8 9 10 13 16 18 21 22 22 23 23 23 22 21 21 21 21 20 20 18 17 15 14 14 12 10 8 6 5 4 3 3 3 3 3 4 5 5 6 6 6 6 6 6 5 6 6 6 8 9 10 12 13 13 13 13 13 14 16 15 15 16 17 19 19
8 4 3 9 11 6 0 4 2 3 8 11 14 15 15 15 15 14 12 7 4 6 6 6 8 11 13 15 17 19 21 23 23 22 22 21 21 21 21 21 20 19 18 17 15 14 13 10 8 6 5 4 4 3 2 3 4 4 5 5 6 6 5 6 6 6 6 6 5 6 6 7 8 9 10 11 12 12 12 13 15 16 16 16 17 18 19
7 5 7 9 5 1 2 3 4 1 2 5 9 12 14 14 14 14 13 11 7 6 6 6 6 8 10 11 13 16 19 21 22 22 22 21 21 22 22 21 21 19 18 17 16 15 13 10 8 7 5 4 4 3 2 3 4 5 5 5 5 4 5 6 5 4 5 4 4 4 5 6 6 6 7 8 10 11 11 12 13 14 17 18 18 17 17
5 7 9 7 3 3 4 4 5 3 2 3 4 8 11 13 13 13 13 11 7 8 8 7 8 9 10 9 10 14 17 20 22 22 22 22 22 22 21 20 20 19 18 17 16 15 12 10 8 7 6 5 4 3 3 3 3 4 4 4 3 3 4 5 4 3 4 4 3 4 4 5 5 5 6 7 8 9 10 11 11 12 13 15 17 18 18
4 7 9 7 8 8 4 5 6 7 6 5 5 6 7 6 5 8 11 10 8 9 9 9 10 10 9 7 10 16 20 22 22 20 20 21 21 20 21 21 20 19 18 17 16 14 12 10 9 7 6 5 3 3 3 3 3 3 2 3 2 2 3 3 3 3 4 4 3 4 4 4 5 5 6 6 7 8 9 10 11 11 11 13 15 17 18
5 7 8 8 8 4 5 7 7 9 7 5 5 7 7 2 9 7 6 6 7 8 10 12 11 9 8 8 11 21 27 28 25 21 20 21 20 20 22 21 20 19 19 18 16 14 12 10 8 6 6 5 4 3 3 3 3 2 2 2 2 1 2 2 3 3 4 4 4 4 4 4 5 6 6 6 7 8 8 9 10 10 11 11 12 14 17
6 7 7 7 6 1 5 7 9 11 8 4 5 9 6 5 12 11 7 4 5 7 11 13 10 9 7 5 11 25 32 31 27 25 23 22 20 20 21 20 19 20 19 17 15 14 11 9 7 5 4 4 4 3 2 3 3 3 4 3 2 2 2 2 2 2 3 3 2 2 4 4 4 5 5 5 6 6 7 8 8 8 9 10 11 15 17
7 7 8 7 6 2 4 6 7 9 7 4 6 5 1 8 12 11 10 7 6 7 12 12 9 7 3 2 12 28 33 30 26 24 23 21 19 19 20 21 21 20 18 16 14 13 10 7 6 6 4 4 4 3 2 2 3 3 4 4 2 1 2 3 3 2 2 2 2 2 4 3 2 3 4 4 5 6 6 7 8 7 8 11 14 16 16
6 7 8 9 7 0 6 6 5 5 4 5 2 4 6 9 11 13 12 8 5 6 12 12 7 3 1 6 17 29 32 31 29 26 24 22 19 20 22 23 22 19 17 16 15 12 9 7 7 7 5 4 4 2 1 2 3 3 3 2 1 1 1 1 2 2 2 2 2 3 3 2 1 1 2 4 5 5 5 6 7 7 8 11 13 14 13
4 5 7 10 7 2 7 7 2 2 3 4 5 8 9 10 11 13 13 9 6 6 10 11 7 3 2 7 17 25 29 30 30 28 26 25 24 24 24 24 21 19 18 17 15 12 10 8 8 7 4 4 3 2 2 3 3 2 2 1 1 1 1 1 3 4 3 3 4 4 4 3 2 2 2 3 4 5 4 4 6 5 6 9 12 12 12
4 6 7 6 4 4 8 5 1 2 4 6 7 9 10 11 12 12 13 11 8 6 8 9 8 5 4 7 14 21 25 28 29 28 27 27 26 25 24 23 22 20 19 18 15 13 11 9 7 6 4 4 3 3 3 3 2 1 1 0 1 1 2 3 5 5 4 5 6 6 5 4 3 3 3 3 3 3 2 3 4 3 3 5 9 10 10
3 5 4 2 5 6 6 4 1 2 4 5 7 8 9 11 12 12 12 12 10 7 7 9 8 7 6 8 12 19 23 27 29 29 28 28 27 25 24 23 22 20 19 17 15 13 11 9 7 5 4 4 4 3 3 3 2 2 1 1 1 2 3 5 6 6 7 8 7 6 5 5 4 4 3 2 2 2 1 1 1 2 3 4 6 7 6
3 6 7 6 5 5 4 2 2 2 4 5 6 8 8 10 12 12 12 12 11 8 7 8 9 9 8 9 11 15 20 25 28 29 29 28 26 24 24 23 22 20 17 16 15 13 11 9 7 5 5 5 4 3 3 2 2 2 1 2 3 3 4 6 7 8 9 8 7 7 6 5 4 5 4 2 1 3 4 4 3 5 6 6 6 6 5
2 3 5 7 11 11 7 6 5 4 5 6 7 8 9 10 12 12 12 11 11 9 7 8 9 10 9 11 13 14 18 24 29 31 30 28 25 24 24 23 22 20 17 16 16 14 12 10 7 5 6 6 4 3 3 3 2 2 2 3 5 5 5 6 8 9 10 9 9 9 9 7 7 8 8 7 4 3 6 7 7 6 7 8 7 6 6
5 5 3 4 9 11 9 7 5 4 6 8 10 10 10 10 11 12 12 11 9 7 7 8 9 10 10 12 14 14 17 26 32 32 31 28 26 25 24 23 21 19 17 16 16 14 13 11 8 7 7 7 5 4 5 4 4 3 3 4 5 6 5 7 9 10 10 9 9 10 12 13 12 13 13 12 10 7 8 10 10 8 8 10 11 9 9
7 8 6 6 7 7 6 6 3 4 6 9 11 12 11 11 12 14 15 12 8 5 6 7 9 12 12 14 16 16 19 28 34 33 30 29 28 26 24 22 20 19 18 17 15 13 12 10 9 8 8 7 6 5 6 5 4 4 5 5 6 7 7 8 10 10 9 9 9 11 15 17 18 18 18 17 16 15 13 14 15 13 13 14 15 15 15
3 4 6 6 5 5 5 5 8 8 7 8 10 12 13 13 15 17 16 13 9 5 5 7 9 12 13 14 18 19 21 30 35 34 31 30 27 25 23 21 20 18 17 16 14 13 11 9 8 9 9 9 7 6 5 5 4 5 6 6 6 7 7 7 8 8 8 8 10 11 13 16 19 22 22 21 22 23 23 22 23 22 20 20 21 23 24
4 6 10 9 6 6 8 10 12 11 10 9 10 11 12 13 15 17 15 10 7 4 4 7 9 11 13 16 18 19 23 30 34 33 31 29 26 24 23 22 20 18 16 14 13 12 11 9 9 10 11 9 8 7 5 4 5 5 6 7 6 6 6 8 9 8 7 8 9 10 11 12 15 20 24 25 26 26 26 24 23 23 23 24 24 26 27
6 9 12 11 9 10 11 11 13 13 10 9 9 10 10 11 13 14 11 7 5 3 5 7 8 10 14 16 16 19 26 32 33 32 30 27 26 25 24 22 20 17 15 14 12 11 10 9 10 12 11 10 9 8 5 4 5 5 5 6 5 6 9 12 11 8 7 7 8 9 9 10 11 14 19 23 24 22 21 20 21 22 24 25 26 27 27
10 11 13 13 14 14 12 12 13 12 9 8 9 9 8 10 12 11 9 7 4 2 5 8 10 12 14 16 16 19 26 32 32 31 29 26 25 25 23 20 18 16 14 13 12 10 9 9 11 13 12 10 10 8 6 5 5 5 6 7 5 6 10 12 10 7 7 7 7 7 8 10 11 10 13 18 21 21 21 21 22 23 24 25 26 26 26
13 13 14 15 16 14 11 10 10 8 6 6 7 6 6 9 13 12 9 8 5 2 6 10 13 15 16 18 19 21 25 29 30 29 27 25 24 23 21 19 16 14 13 12 11 10 9 10 12 13 12 11 10 9 7 6 5 5 7 7 6 7 9 9 8 7 7 7 8 8 7 9 11 11 12 16 18 18 18 19 21 22 23 24 24 25 26
13 13 13 14 13 10 7 7 8 6 5 5 5 4 3 6 10 10 9 9 7 3 6 10 13 15 17 20 22 22 24 27 29 27 25 25 24 22 19 17 15 13 12 11 10 10 9 11 13 14 12 10 9 8 8 6 5 6 6 6 7 10 11 9 8 8 8 8 8 8 8 9 11 12 12 14 14 14 14 16 18 20 22 22 23 23 24
14 13 11 11 12 11 8 8 9 8 6 5 3 3 3 4 8 9 8 9 8 5 6 9 12 16 18 20 23 24 24 26 28 26 25 24 23 20 18 16 14 13 13 11 11 10 10 12 14 14 13 12 10 8 8 7 5 6 7 7 8 10 10 9 8 9 9 9 9 11 11 12 13 14 14 15 16 16 16 16 18 21 22 21 22 22 23
11 10 9 11 13 13 10 10 10 9 7 7 5 4 4 3 7 9 8 8 6 4 5 7 12 18 20 21 24 29 30 29 28 26 24 23 21 18 16 15 14 14 13 12 11 11 12 14 15 14 13 12 10 9 9 8 6 6 8 9 9 9 8 9 9 9 8 9 11 14 15 16 16 16 16 16 16 15 15 16 18 20 20 19 19 19 21
9 9 11 12 12 11 10 10 10 9 8 8 7 6 5 3 5 9 9 7 5 2 4 6 8 14 19 19 22 29 33 31 28 26 24 22 20 17 16 15 15 14 13 13 12 12 13 15 15 14 13 12 10 9 10 9 7 7 9 11 11 10 10 11 10 9 9 11 13 14 15 16 15 15 15 15 14 14 15 16 16 16 16 15 14 15 18
11 13 14 13 12 11 11 11 10 9 8 8 8 7 6 4 3 7 9 8 5 1 4 4 5 10 16 15 16 24 32 31 28 27 25 22 19 17 16 15 15 14 14 13 12 12 13 15 15 14 13 12 10 10 11 10 8 9 11 11 12 13 14 14 13 11 11 13 13 13 13 12 12 12 13 14 13 13 14 14 13 13 13 13 13 14 15
16 17 16 14 12 12 11 11 11 11 9 8 9 8 7 5 1 2 5 7 6 3 3 4 5 9 15 16 17 23 29 30 28 26 24 22 19 18 17 16 15 13 12 11 11 12 13 15 14 14 13 12 11 11 11 10 9 10 12 12 13 15 16 16 15 14 13 13 12 11 10 11 10 11 11 12 12 12 12 12 12 12 11 11 12 14 14
16 16 14 11 10 10 10 10 11 12 11 9 8 7 7 5 2 3 2 3 5 5 6 4 4 7 12 17 21 24 26 28 27 25 23 21 20 18 18 17 15 13 11 10 12 13 13 13 14 14 13 12 12 12 11 9 9 11 12 12 14 17 17 16 15 14 13 12 11 10 10 11 10 10 10 10 10 10 10 10 10 10 10 10 12 14 15
17 17 14 10 7 6 6 6 8 10 11 10 8 6 8 7 5 4 5 5 3 5 8 6 4 6 10 15 20 23 25 26 25 24 22 21 20 19 19 17 15 13 11 11 13 13 13 13 14 14 14 13 13 13 11 10 10 12 12 13 16 18 18 17 15 13 11 11 11 12 11 11 10 10 11 10 10 10 10 10 10 10 9 10 12 13 14
17 17 15 11 7 5 4 4 5 6 7 8 7 6 6 6 7 7 8 9 6 4 6 7 7 8 10 13 17 20 22 22 20 20 21 21 19 19 19 18 16 14 12 12 13 14 13 13 14 14 15 15 14 13 12 11 11 13 14 15 17 18 17 17 15 12 10 10 12 12 11 10 10 11 11 10 10 10 10 9 9 9 9 10 11 12 13
14 13 11 9 9 9 7 5 5 5 5 6 6 7 6 4 5 8 9 8 5 4 5 9 11 11 11 12 14 17 18 16 14 14 17 19 19 19 20 20 20 17 14 13 14 14 14 13 14 15 17 16 14 13 13 12 11 12 15 17 17 16 16 15 13 11 11 11 11 11 11 11 11 11 11 10 10 10 10 10 10 10 10 10 11 12 13
8 8 7 6 8 10 8 6 5 5 5 5 5 7 8 6 6 7 9 10 10 10 10 11 14 14 14 13 14 15 16 16 15 17 21 23 22 21 21 21 21 20 18 16 16 15 15 15 15 16 18 18 16 15 14 13 12 12 15 16 15 14 14 13 11 11 12 12 12 12 12 12 12 12 11 10 10 10 10 10 10 10 10 11 11 12 12
6 5 4 4 6 8 8 5 4 5 6 6 6 7 8 8 7 6 8 11 15 15 14 13 14 13 11 11 12 14 16 19 21 23 26 27 25 24 23 22 21 21 21 19 17 16 16 17 16 17 20 20 18 16 15 15 13 12 14 16 15 14 14 13 12 12 13 12 12 12 13 13 12 12 12 11 11 11 11 10 10 11 11 11 11 12 11
5 3 5 7 8 8 6 3 2 5 7 7 7 8 8 6 5 5 7 10 13 14 14 14 13 12 10 10 12 13 16 21 24 25 26 26 26 25 23 21 20 20 20 19 18 18 18 17 17 18 21 22 20 17 16 16 14 13 14 15 15 14 14 14 13 13 14 13 13 13 13 12 12 12 12 12 12 12 12 11 11 11 11 11 11 11 11
1 4 9 11 9 5 3 3 2 4 6 7 8 7 7 6 6 7 8 9 10 10 11 12 12 12 11 11 12 13 16 20 22 22 22 23 25 24 22 19 19 19 19 18 18 19 18 17 18 19 21 22 22 19 17 17 16 14 14 15 14 14 15 15 14 14 14 14 14 14 13 13 12 12 12 12 13 13 13 12 12 11 11 11 11 11 11
2 5 6 6 5 4 1 1 1 1 1 4 5 6 6 7 7 6 7 7 7 8 8 8 9 9 9 9 10 12 14 16 18 18 18 20 22 22 21 20 19 19 18 18 19 19 18 18 19 20 21 22 23 22 19 18 17 16 15 15 15 15 16 16 15 15 15 15 15 15 15 14 14 14 13 13 14 14 13 13 12 12 11 11 11 11 11
2 2 1 2 3 4 4 1 1 1 2 2 2 2 2 3 3 3 3 4 4 5 6 7 7 7 7 7 8 10 11 13 15 15 16 18 20 21 21 20 20 19 18 17 18 19 20 20 21 21 21 23 25 24 21 19 19 19 18 17 17 17 17 17 17 16 16 16 16 16 15 15 15 15 14 15 15 14 14 14 13 13 12 12 12 12 12
1 1 3 5 4 4 4 4 3 2 2 2 3 4 3 3 3 3 2 3 3 4 5 6 7 8 8 7 7 8 9 11 13 14 15 16 17 19 20 20 20 20 19 18 18 20 21 22 22 23 23 24 25 24 22 21 21 21 20 19 19 18 18 18 18 18 17 17 17 16 16 15 15 15 15 15 15 15 15 15 14 14 13 13 13 13 13
3 4 5 5 4 4 4 4 5 4 4 4 3 2 3 3 4 4 4 4 5 5 6 7 8 9 9 8 8 8 8 9 11 12 14 15 17 18 19 20 20 21 21 20 20 21 23 23 24 24 24 24 24 24 23 22 22 22 21 21 21 20 20 20 19 19 19 18 18 17 16 16 16 15 16 16 16 16 16 16 15 14 14 14 14 14 14
5 6 6 6 6 5 4 4 4 4 5 5 5 4 3 2 3 3 4 5 6 6 8 8 8 9 9 9 9 10 10 9 9 10 11 12 14 16 17 18 19 21 23 23 22 22 23 24 24 23 23 23 23 24 25 23 22 21 22 22 21 21 21 21 20 19 19 19 18 17 17 17 16 16 15 16 16 17 18 18 17 16 15 15 15 16 16
7 7 7 7 6 5 5 4 3 4 5 5 5 4 4 4 2 1 2 3 4 5 6 6 6 7 7 8 9 10 10 9 9 9 9 10 11 12 14 16 18 19 22 24 23 22 22 23 23 22 21 21 22 24 26 25 21 21 22 22 22 21 22 21 20 19 19 18 18 18 17 17 17 16 15 15 16 16 17 18 18 18 17 17 16 17 17
10 9 8 6 4 4 5 5 4 4 4 4 4 4 5 5 4 2 1 1 1 2 3 3 4 5 7 8 9 10 10 9 9 8 8 9 10 10 12 14 16 17 19 21 21 21 21 23 24 25 25 25 24 25 27 25 23 21 22 22 22 22 22 21 20 19 18 18 19 18 18 17 17 16 15 15 15 16 16 18 19 19 18 18 18 18 18
9 8 6 5 4 4 4 5 5 4 4 4 4 4 4 5 5 4 3 3 3 2 2 2 3 4 6 7 8 8 9 9 8 8 9 11 11 10 10 12 15 18 19 20 21 22 23 23 24 25 26 27 27 28 28 27 25 24 23 23 24 23 22 21 20 20 19 18 19 19 19 19 18 16 16 16 16 16 16 17 17 16 16 17 18 19 19
7 6 5 4 4 4 4 4 4 5 5 5 5 5 4 5 5 5 4 4 3 2 2 3 3 5 7 8 8 8 9 10 10 9 10 11 11 11 10 11 14 18 20 21 22 24 25 24 22 22 24 26 28 30 31 31 29 27 25 25 25 24 23 22 20 19 18 18 19 19 19 19 18 18 17 17 16 15 15 14 13 13 14 15 16 17 18
6 6 5 5 5 6 5 5 4 5 5 6 6 5 4 4 3 3 4 4 4 3 2 2 3 5 6 8 9 9 10 12 12 12 12 11 10 10 10 11 13 17 20 21 21 22 25 26 24 24 26 29 31 32 32 32 31 30 28 27 26 25 24 22 21 20 18 18 18 18 18 18 17 17 17 17 16 15 14 13 13 14 16 15 14 14 14
5 5 5 5 5 6 6 5 5 5 5 6 6 5 5 4 3 3 4 5 4 3 3 2 3 4 5 7 8 8 9 11 12 14 15 14 12 10 11 12 14 17 20 21 19 18 22 25 27 27 28 31 33 34 35 34 32 31 31 29 27 25 24 23 22 21 20 18 17 16 16 16 16 16 17 17 16 15 14 13 12 13 14 13 12 12 12
4 5 5 5 4 4 5 5 5 6 6 6 6 6 6 4 3 3 5 5 4 3 2 2 2 3 4 5 5 6 7 8 10 11 13 13 12 11 11 12 14 16 19 21 19 17 17 21 25 28 30 31 33 36 36 34 31 29 30 30 27 24 23 23 22 20 19 19 19 17 15 15 15 16 16 16 16 15 14 13 12 12 12 12 12 12 12
Wind_Direction
251 262 268 270 268 265 263 254 237 214 207 214 221 235 242 232 242 260 190 200 244 245 184 184 186 182 181 179 180 178 173 171 169 165 164 164 164 166 169 173 174 174 173 170 168 167 161 158 158 155 156 160 162 186 207 210 219 225 219 212 213 212 212 220 225 222 224 231 238 241 243 243 241 239 236 235 234 231 230 231 230 229 228 228 229 230 229
255 257 262 261 255 254 253 251 249 232 216 216 223 236 241 235 241 255 229 221 244 251 207 191 187 186 183 177 177 177 174 173 170 169 171 171 172 173 175 177 178 177 177 176 174 172 169 165 164 162 164 169 174 198 213 207 215 224 216 210 219 216 214 224 230 225 222 225 227 228 231 236 238 238 238 238 237 234 233 234 232 228 227 226 226 228 228
255 253 255 254 251 251 249 244 242 238 231 224 226 238 242 237 241 239 229 238 244 231 135 152 163 171 170 169 175 178 177 176 174 175 177 177 178 180 180 180 180 180 180 179 177 177 174 169 168 170 174 184 193 201 208 207 211 215 212 217 227 225 225 231 236 236 232 231 231 229 229 232 233 233 234 236 239 239 238 240 238 234 232 230 228 228 228
252 242 240 247 251 251 250 244 236 233 233 229 229 233 230 232 239 230 222 241 244 178 136 137 152 163 168 171 176 178 178 178 178 180 182 181 182 183 181 181 183 183 183 182 181 181 178 174 174 179 186 198 203 199 210 213 205 204 209 217 225 230 233 234 235 245 249 243 241 240 237 238 240 238 234 232 233 236 238 242 242 238 235 235 233 231 231
251 232 226 245 251 247 245 239 230 225 226 230 232 229 223 228 236 231 225 242 240 153 154 163 169 176 181 182 181 180 180 179 182 185 185 184 184 183 183 187 190 189 188 187 186 184 182 179 179 184 194 204 202 205 221 218 204 209 221 224 227 234 240 240 240 247 254 253 255 252 245 245 246 245 244 241 237 235 235 237 238 238 239 239 236 233 231
249 223 204 238 242 243 245 227 221 225 225 228 229 226 223 224 227 233 239 234 143 146 173 186 183 186 192 189 185 183 181 179 182 186 186 186 186 185 186 191 194 193 190 188 187 186 184 181 181 188 201 212 205 196 211 218 212 223 236 240 238 238 244 249 250 254 256 258 262 258 251 250 248 246 247 247 245 242 240 238 236 237 242 241 239 239 236
251 223 197 236 240 244 324 69 64 248 239 238 237 235 233 225 220 226 232 225 182 171 186 187 181 186 188 184 182 182 183 183 183 184 186 188 187 186 187 190 193 194 194 190 187 187 184 179 182 192 204 211 201 182 194 229 242 246 245 247 249 250 251 253 252 258 263 262 264 262 256 254 251 251 251 249 248 246 245 243 238 235 237 238 241 245 243
245 228 222 238 256 351 105 99 67 29 242 233 234 237 233 226 220 222 229 234 213 172 162 157 155 162 163 166 175 181 184 186 184 183 187 188 187 187 190 194 196 198 198 194 191 191 187 178 182 191 191 187 186 187 208 235 255 264 262 257 253 249 249 253 257 261 264 265 265 263 262 258 258 259 256 253 252 248 246 248 244 238 235 234 235 240 242
229 241 237 236 267 249 183 114 57 19 290 243 242 244 231 223 223 223 230 234 197 157 157 156 149 155 161 166 176 177 179 184 186 188 188 188 190 193 195 198 200 200 197 192 194 197 189 178 184 191 183 177 182 197 213 227 247 258 260 255 251 247 249 254 261 263 263 267 272 269 268 267 271 272 264 259 256 251 250 250 249 247 243 238 234 233 236
215 248 246 236 245 237 171 88 44 13 349 318 296 268 234 225 240 238 237 229 183 155 156 155 152 163 179 193 186 180 183 186 185 184 187 190 191 190 190 194 197 197 192 187 190 190 179 176 192 195 177 171 186 203 211 224 239 246 248 242 245 260 264 259 265 267 265 269 280 285 279 278 283 280 274 269 262 255 252 248 246 248 246 240 237 234 234
215 235 242 236 239 223 99 65 18 5 357 326 284 240 214 45 19 354 297 250 194 170 162 159 161 176 200 210 187 183 191 192 184 180 185 185 182 184 191 195 193 191 188 185 186 184 180 191 211 206 178 173 188 205 213 219 221 221 235 240 243 266 267 267 276 280 281 285 290 295 292 291 291 282 273 274 273 268 263 258 254 251 244 239 240 237 232
226 235 244 242 244 246 66 41 5 0 358 321 252 222 202 20 8 1 346 299 223 186 168 167 178 201 224 231 183 185 194 194 186 186 189 182 178 183 189 190 188 188 189 188 186 183 190 206 215 207 187 172 178 201 213 207 194 192 213 228 242 266 271 290 306 302 303 306 307 317 313 305 299 290 279 275 279 280 273 265 261 255 244 234 233 234 233
230 237 246 248 248 267 46 39 18 4 347 277 231 223 301 352 343 351 356 321 258 201 183 187 204 220 235 95 161 180 189 188 183 186 189 185 182 179 176 179 185 186 185 182 176 177 192 201 184 179 185 167 169 198 216 192 184 186 208 228 241 278 301 312 313 313 322 327 359 7 340 322 310 300 286 278 281 280 267 256 256 254 237 225 227 231 233
243 245 252 257 251 307 32 19 33 21 313 256 253 330 339 336 336 347 352 334 294 232 207 207 227 253 116 129 158 172 180 182 181 182 182 179 174 170 175 183 185 178 171 168 168 174 188 188 171 173 183 172 171 190 194 188 189 185 199 230 258 351 340 315 329 1 11 6 31 42 33 25 13 315 280 278 286 286 270 251 252 251 230 219 227 235 235
250 249 246 254 251 59 28 354 359 75 305 304 350 343 335 345 347 343 344 346 331 276 234 222 232 251 188 167 165 166 171 177 179 180 177 171 167 172 181 185 181 173 167 164 165 170 175 176 174 176 179 171 169 183 187 188 187 178 185 219 337 359 343 42 34 25 28 43 56 59 54 44 17 312 284 285 285 282 273 256 253 255 235 221 225 232 234
213 228 232 251 282 29 31 9 10 48 349 343 348 336 332 343 345 339 338 340 335 304 258 235 227 214 197 184 167 159 163 171 175 175 172 168 170 176 178 177 174 170 165 161 162 165 169 177 183 183 180 166 155 174 196 188 174 179 194 248 15 20 53 64 50 43 60 71 63 53 43 31 7 323 302 296 286 281 287 268 251 253 252 229 220 220 225
226 244 248 323 11 13 15 15 19 355 335 331 337 335 330 332 336 337 331 324 323 310 266 239 226 208 196 188 173 163 163 168 171 172 171 172 175 173 169 170 171 167 164 164 163 163 172 186 192 189 176 152 148 183 210 193 174 189 190 67 72 80 75 72 65 66 72 68 55 42 30 20 11 354 326 293 252 210 129 96 185 171 149 162 175 185 200
290 278 270 274 287 297 310 297 257 285 309 322 337 335 329 329 332 333 326 317 314 304 264 234 222 211 194 183 180 172 162 162 168 171 171 171 171 166 163 169 170 163 162 166 163 161 168 177 186 184 157 145 163 201 197 171 168 181 153 91 98 97 87 86 84 78 72 62 50 42 36 30 30 26 17 4 229 176 146 113 113 128 125 127 141 154 169
248 249 254 261 260 261 271 271 253 258 289 314 331 329 325 329 331 331 330 321 310 295 265 232 218 209 196 185 183 175 163 163 167 170 169 167 164 162 167 173 170 162 161 163 160 160 162 162 170 172 148 146 180 196 159 154 168 154 127 109 106 100 91 90 90 85 78 70 61 56 54 55 61 63 58 52 60 135 140 117 101 107 115 115 115 118 124
257 249 266 294 275 266 259 250 251 282 306 316 329 330 326 328 331 335 336 328 314 294 263 233 211 202 198 189 182 174 167 168 170 169 168 166 165 168 175 179 173 165 163 163 161 163 167 164 164 161 145 145 169 162 141 154 169 145 124 122 113 102 96 98 96 91 84 76 71 70 71 71 73 73 72 69 69 88 116 114 102 96 107 110 104 97 98
274 265 288 316 297 266 232 225 265 331 332 325 329 332 331 332 337 341 340 334 323 293 259 238 213 203 199 192 185 179 173 171 171 170 169 170 172 176 179 178 176 173 168 164 165 172 177 172 164 157 148 144 149 141 133 146 161 148 133 127 116 106 102 102 99 95 88 82 78 77 77 77 77 77 77 78 78 79 87 99 101 98 99 98 94 91 91
260 266 300 316 299 259 252 285 316 334 340 333 329 329 330 335 341 344 342 337 326 293 245 232 216 202 196 194 191 185 177 174 173 173 174 175 176 178 178 176 177 178 172 169 175 181 180 172 163 155 150 146 143 137 133 138 144 140 134 126 121 116 110 105 102 98 95 94 90 85 81 80 82 83 83 83 85 85 86 90 92 91 90 91 93 94 93
259 287 300 307 304 286 289 302 311 317 325 330 327 326 328 333 340 345 345 336 323 300 226 218 212 202 198 197 191 183 179 177 175 176 178 177 175 175 175 174 174 174 173 176 183 185 178 171 163 156 154 152 147 140 137 136 135 136 136 131 127 123 120 121 119 110 102 102 100 97 94 89 87 89 90 90 90 91 91 90 88 87 87 89 92 94 93
259 279 289 300 304 296 291 296 301 303 309 319 322 325 330 336 341 346 348 338 315 269 207 201 198 193 193 189 181 178 180 180 178 177 178 178 176 174 174 174 174 174 175 178 183 184 179 171 163 159 157 156 150 144 141 138 135 135 135 134 136 136 133 133 129 116 108 111 109 105 104 100 95 93 95 96 96 93 91 89 88 88 88 87 87 88 89
250 269 286 298 298 290 285 285 287 285 289 303 312 318 335 349 349 347 348 344 325 245 201 197 195 193 186 174 167 175 180 180 180 179 176 175 175 173 172 175 178 177 179 181 183 184 180 172 167 163 160 160 156 149 146 145 140 137 138 138 141 141 139 138 133 121 116 118 114 109 111 111 108 104 102 102 101 98 95 93 92 90 88 86 86 85 86
250 270 286 293 289 281 275 274 275 272 274 292 304 308 328 355 359 356 352 348 335 248 211 214 211 203 191 178 172 175 178 178 179 179 175 172 172 171 171 175 177 179 182 183 183 185 182 176 171 166 163 165 163 154 152 156 147 143 145 143 143 147 145 140 133 127 125 124 122 123 125 121 120 121 117 109 103 99 95 92 91 90 89 89 89 89 88
259 272 281 286 286 286 286 282 281 279 272 279 304 314 322 358 8 6 360 353 340 279 231 232 224 210 200 192 185 181 180 178 176 174 172 169 167 169 171 172 176 179 180 181 186 189 182 175 173 168 165 170 168 160 161 162 150 148 151 145 146 152 148 139 132 132 133 132 130 131 131 130 129 129 125 117 111 107 104 99 95 93 94 94 93 92 91
268 269 269 272 279 291 299 285 274 272 267 266 295 329 335 9 26 22 8 357 342 299 249 235 222 209 200 194 187 184 184 180 173 171 170 168 167 168 169 170 174 177 178 184 191 187 177 174 174 171 171 174 173 167 169 168 154 151 151 146 147 150 145 139 139 140 138 137 136 135 133 132 132 130 127 123 118 113 109 105 102 101 100 98 97 97 97
266 261 258 263 273 283 284 270 262 259 256 260 281 310 311 350 37 31 13 2 350 310 243 217 213 207 198 188 181 180 180 177 172 170 168 166 165 166 166 169 175 178 182 188 189 182 177 176 174 173 177 180 175 169 173 174 167 159 154 150 151 151 148 148 150 147 143 143 143 142 139 135 131 129 127 124 120 115 112 110 107 105 102 97 96 99 101
249 247 255 265 274 275 267 258 256 252 248 256 271 288 293 315 30 23 10 10 10 321 214 198 205 201 192 183 178 176 174 170 169 168 165 162 164 166 170 175 179 182 187 190 187 182 178 176 176 178 180 181 179 175 173 174 173 167 158 155 160 164 162 158 154 149 146 146 145 144 142 137 134 134 132 128 125 123 120 117 113 109 105 101 99 102 105
260 260 265 271 276 272 260 252 249 246 245 252 257 262 274 290 355 18 19 24 28 10 195 186 177 174 173 176 179 174 168 164 163 162 161 163 166 170 176 182 185 188 192 190 185 181 178 178 179 180 178 179 182 178 172 174 179 170 159 161 172 173 164 155 152 152 152 149 145 144 144 143 141 140 138 134 132 129 125 121 118 116 114 112 112 112 112
272 271 269 268 267 262 253 245 245 245 244 246 248 249 260 270 266 50 28 16 17 51 143 174 183 168 165 174 181 174 164 159 159 160 162 167 171 173 177 183 189 193 194 187 182 182 180 178 179 179 179 180 179 172 173 181 180 168 163 167 172 167 158 153 154 156 155 152 149 148 150 150 148 146 145 140 137 135 132 127 125 125 122 123 128 134 135
271 266 265 268 268 260 248 241 246 250 250 250 250 245 239 232 184 138 106 7 6 50 89 124 194 176 159 169 180 174 162 156 158 162 167 173 175 175 178 183 188 190 187 180 179 180 178 177 179 181 181 179 173 170 175 180 171 165 169 172 168 163 161 160 161 159 157 156 156 155 154 153 151 151 150 146 142 140 137 134 133 131 130 136 146 150 150
260 258 263 277 283 272 258 250 253 256 254 250 247 236 222 216 210 172 129 107 72 68 83 101 186 189 160 166 177 172 161 158 162 169 175 178 178 178 181 185 187 187 184 179 176 176 175 178 182 183 181 176 171 171 175 175 168 167 172 174 170 169 169 166 162 161 163 165 164 161 158 156 155 156 153 149 146 145 141 138 138 136 134 142 152 155 154
258 260 267 271 263 253 257 251 236 234 236 232 227 223 217 217 226 210 157 128 119 111 113 138 185 190 175 178 178 166 156 157 164 173 182 186 184 182 183 184 185 186 185 182 178 175 176 180 184 183 181 178 176 174 175 176 173 171 172 175 175 174 173 170 166 167 174 177 171 165 161 160 160 159 156 152 150 147 144 141 140 138 136 141 149 153 155
257 260 264 256 242 239 239 225 200 194 206 216 215 216 211 198 209 214 193 162 152 170 177 182 182 173 173 186 182 163 154 156 166 184 198 199 195 190 187 185 185 185 186 186 183 179 179 182 183 183 181 181 180 179 177 176 175 177 179 180 179 177 176 174 171 172 180 182 177 171 169 169 166 161 158 156 154 152 149 145 141 138 136 136 140 146 148
243 247 252 246 240 236 230 218 200 191 200 211 210 208 203 181 172 193 198 186 181 187 195 194 185 174 174 181 178 167 165 172 186 206 215 212 205 198 193 189 186 185 188 192 190 184 184 186 183 182 183 183 182 182 182 180 179 182 185 184 181 179 179 177 174 177 182 185 183 179 177 175 171 167 165 164 161 158 154 151 148 146 141 137 137 140 142
194 215 233 238 233 227 225 228 208 181 187 204 204 189 177 163 158 181 197 191 186 187 189 189 186 180 177 177 176 177 182 189 198 209 216 214 209 204 199 195 193 192 194 195 192 189 191 189 183 182 185 186 183 184 186 184 181 181 185 186 185 184 183 181 179 179 182 185 186 183 180 178 177 177 176 173 170 167 165 161 158 156 151 146 144 143 143
161 214 256 255 237 218 208 209 176 152 162 188 201 192 175 161 166 200 205 192 185 185 184 180 178 177 176 173 173 180 193 203 209 215 219 217 213 209 205 201 199 199 199 197 194 194 196 191 186 187 190 189 186 188 189 185 182 182 186 189 189 188 187 186 184 181 181 185 187 184 182 184 186 186 185 182 178 176 173 169 167 164 161 160 158 155 152
63 297 282 273 263 237 186 164 149 134 138 152 167 175 178 181 191 200 194 180 172 174 175 174 176 180 184 183 181 186 197 206 212 214 215 213 210 209 207 204 203 203 202 199 198 200 198 193 191 195 194 191 190 193 192 188 187 188 188 189 190 189 188 189 188 184 183 186 187 185 186 189 192 192 190 188 185 182 179 177 174 172 171 170 169 167 165
305 291 284 284 295 303 288 185 190 207 153 149 150 151 155 164 173 176 173 168 164 167 172 175 179 183 185 185 186 194 202 207 209 209 208 206 205 207 209 209 209 208 207 204 202 203 201 197 197 200 198 194 195 197 196 192 194 198 196 191 190 191 191 192 191 188 186 186 186 186 187 190 192 191 190 189 188 186 184 183 183 182 181 180 179 177 176
285 301 352 45 10 329 320 346 106 286 286 269 245 224 191 179 182 177 169 170 176 180 185 189 193 196 193 185 185 195 204 206 204 203 205 207 208 211 215 218 218 217 214 209 205 205 204 201 202 204 203 199 200 202 199 195 199 206 206 200 195 195 196 195 195 193 191 190 190 190 191 192 191 189 189 189 190 190 190 190 190 190 189 188 186 187 187
300 356 56 72 52 352 345 24 52 38 359 328 296 285 281 273 264 256 242 229 223 217 214 214 215 216 213 200 190 196 204 205 203 203 206 209 213 217 221 225 225 224 221 216 211 209 208 206 206 208 209 206 205 205 205 203 206 211 212 209 205 203 202 201 201 201 198 198 198 198 198 197 197 196 195 195 195 195 195 195 195 195 195 195 195 196 196
26 24 38 52 45 7 0 28 43 41 34 26 8 338 316 299 287 277 266 254 244 237 236 235 233 230 224 211 200 200 204 207 207 208 210 213 216 218 221 225 226 223 221 220 218 215 212 211 210 211 212 212 210 209 208 210 212 214 214 213 211 209 207 206 207 206 205 205 206 207 207 207 207 207 207 208 207 206 205 204 202 202 202 203 203 202 202
54 45 40 39 32 13 2 14 31 40 44 44 39 32 14 331 295 276 265 255 248 245 242 237 232 230 224 213 206 208 210 208 207 208 212 218 223 222 222 224 224 219 215 216 218 217 215 214 214 214 214 215 215 213 212 212 214 214 214 213 213 212 211 211 211 210 210 210 211 213 213 214 214 215 217 218 217 215 214 213 213 212 211 212 211 211 211
60 55 48 40 25 7 1 9 20 29 39 47 48 37 22 8 356 312 263 250 241 240 239 234 229 228 223 217 215 217 215 213 213 214 214 220 228 230 227 225 223 219 213 212 213 214 213 214 216 217 216 216 217 217 215 214 214 215 215 213 213 213 213 212 212 212 212 212 213 215 215 216 218 221 223 224 224 221 220 221 222 221 219 219 220 220 220
47 43 39 34 18 2 11 24 27 24 28 34 37 28 14 8 10 17 8 334 283 247 234 226 225 227 228 226 224 221 216 215 219 223 222 222 227 230 229 224 219 216 212 209 209 210 213 214 214 214 213 213 214 217 217 217 216 216 216 215 214 214 214 212 212 213 213 213 215 215 216 217 220 222 224 225 224 221 221 223 226 226 225 227 228 228 227
33 31 26 21 13 14 22 26 25 22 18 10 6 3 1 358 360 5 8 3 351 326 289 260 243 238 236 233 229 223 220 218 220 226 233 234 229 226 228 227 220 213 208 206 207 211 215 217 218 218 216 214 212 212 214 215 216 216 216 215 214 213 212 212 212 213 213 214 215 216 217 220 222 224 226 227 225 222 222 225 227 228 230 235 238 237 235
23 22 20 15 9 5 6 8 8 8 7 2 354 345 340 345 353 356 357 358 356 343 318 294 276 262 254 247 240 235 232 229 224 223 231 237 233 224 223 228 226 217 211 208 210 214 217 220 221 222 222 220 215 212 210 212 215 217 216 215 213 212 212 212 212 213 214 215 216 217 218 221 225 227 227 226 223 221 220 222 223 225 230 235 238 239 238
19 21 20 15 7 3 4 4 358 353 354 357 353 345 341 347 350 346 343 346 348 339 322 296 280 273 267 260 254 249 245 242 237 232 230 234 234 225 218 221 226 223 215 210 211 216 219 219 217 216 217 218 217 214 211 211 214 217 218 217 214 213 213 212 212 212 213 212 214 216 218 220 223 224 222 218 217 218 218 218 223 228 229 228 229 232 233
17 16 11 6 4 8 12 14 9 1 358 357 354 348 343 338 322 313 321 334 341 336 320 297 279 273 269 266 263 259 254 250 246 242 238 239 239 232 223 222 227 226 218 210 208 213 217 217 215 214 214 215 216 216 214 212 214 217 219 218 215 213 213 213 213 213 212 211 211 213 216 216 217 216 213 211 214 217 217 219 224 227 224 220 221 226 230
5 4 0 354 351 354 0 4 4 1 357 354 354 353 346 337 326 320 321 328 335 335 313 300 296 284 273 265 260 256 253 250 245 241 238 237 235 230 224 223 226 225 217 209 205 207 212 213 213 213 213 214 216 217 216 213 213 215 218 218 215 210 209 210 211 211 212 213 213 211 212 214 213 210 209 210 212 214 216 219 220 219 217 219 223 229 233